�N����,����,�~����,�C��,���x,�C��,����,���ϕ���,�ő�u�ԕ���,�ő厞����,���˗�,�I�_���x,�n�����x,�ő啗���N��,DTYPE
"22/03/15","00:10",0.0,12.7,91.5,1005.0,279.8,0.7,1.0,318.4,0.00,11.4,13.5,"00:04:56",1
"22/03/15","00:20",0.0,12.9,91.8,1005.2,326.6,1.1,1.9,325.6,0.00,11.6,13.3,"00:14:56",1
"22/03/15","00:30",0.0,13.1,92.0,1005.0,324.1,0.8,1.4,339.6,0.00,11.9,13.1,"00:24:40",1
"22/03/15","00:40",0.0,13.1,92.2,1004.8,261.8,0.7,1.4,156.5,0.00,11.9,13.2,"00:36:56",1
"22/03/15","00:50",0.0,13.4,92.4,1005.0,267.5,1.1,1.7,307.2,0.00,12.2,13.1,"00:46:24",1
"22/03/15","01:00",0.0,13.5,92.5,1004.8,307.8,0.8,1.4,329.0,0.00,12.3,13.2,"00:58:48",1
"22/03/15","01:10",0.0,13.4,92.6,1004.5,342.2,1.1,1.9,333.3,0.00,12.3,13.3,"01:05:12",1
"22/03/15","01:20",0.0,13.3,92.7,1004.1,314.5,1.0,1.6,336.5,0.00,12.2,13.2,"01:10:40",1
"22/03/15","01:30",0.0,13.4,92.9,1004.3,295.9,0.6,1.1,213.3,0.00,12.3,13.0,"01:21:20",1
"22/03/15","01:40",0.0,13.5,92.9,1004.1,303.5,1.1,1.6,313.4,0.00,12.4,13.0,"01:34:48",1
"22/03/15","01:50",0.0,13.5,93.0,1004.3,311.9,1.1,1.7,313.0,0.00,12.4,12.9,"01:47:44",1
"22/03/15","02:00",0.0,13.5,93.1,1004.5,278.4,0.6,1.4,278.9,0.00,12.4,13.0,"01:59:12",1
"22/03/15","02:10",0.0,13.7,93.2,1004.3,311.4,0.7,1.7,315.8,0.00,12.7,12.9,"02:01:12",1
"22/03/15","02:20",0.0,13.7,93.2,1003.8,317.7,0.6,1.3,326.1,0.00,12.7,13.1,"02:17:20",1
"22/03/15","02:30",0.0,13.6,93.4,1004.1,300.5,1.2,2.2,315.6,0.00,12.6,13.1,"02:22:56",1
"22/03/15","02:40",0.0,13.7,93.5,1003.6,336.5,1.3,2.4,336.5,0.00,12.7,13.0,"02:39:52",1
"22/03/15","02:50",0.0,13.8,93.6,1003.8,283.3,1.1,2.1,246.6,0.00,12.8,12.9,"02:44:24",1
"22/03/15","03:00",0.0,13.9,93.7,1003.8,320.0,1.2,3.3,320.0,0.00,12.9,12.9,"02:51:52",1
"22/03/15","03:10",0.0,13.8,93.9,1003.6,268.5,1.0,2.6,340.7,0.00,12.9,13.0,"03:03:04",1
"22/03/15","03:20",0.0,13.9,94.0,1003.8,293.0,1.2,2.4,244.3,0.00,13.0,12.8,"03:10:32",1
"22/03/15","03:30",0.0,14.0,94.1,1003.8,299.8,1.1,1.8,306.7,0.00,13.1,12.8,"03:29:52",1
"22/03/15","03:40",0.0,14.0,94.1,1003.6,319.2,1.0,2.1,302.2,0.00,13.1,12.9,"03:30:08",1
"22/03/15","03:50",0.0,14.0,94.2,1003.6,307.7,1.0,3.3,336.2,0.00,13.1,12.8,"03:42:16",1
"22/03/15","04:00",0.0,14.0,94.3,1003.6,287.9,1.3,2.6,318.8,0.00,13.1,12.8,"03:51:28",1
"22/03/15","04:10",0.0,14.0,94.4,1003.8,219.7,0.5,1.6,254.0,0.00,13.2,12.8,"04:09:28",1
"22/03/15","04:20",0.0,14.1,94.5,1003.8,289.9,0.8,1.7,334.2,0.00,13.3,12.7,"04:12:24",1
"22/03/15","04:30",0.0,14.1,94.4,1004.1,243.7,0.6,1.2,274.0,0.00,13.3,12.7,"04:21:52",1
"22/03/15","04:40",0.0,14.1,94.4,1003.8,282.6,0.5,1.8,299.5,0.00,13.3,12.8,"04:38:48",1
"22/03/15","04:50",0.0,13.9,94.5,1003.8,310.7,1.2,2.8,340.1,0.00,13.1,12.8,"04:44:56",1
"22/03/15","05:00",0.0,13.7,94.6,1004.3,292.2,0.7,2.1,301.2,0.00,12.9,12.8,"04:50:08",1
"22/03/15","05:10",0.0,13.5,94.7,1004.5,315.2,0.8,2.1,335.6,0.00,12.7,12.8,"05:08:48",1
"22/03/15","05:20",0.0,13.4,94.8,1004.3,323.6,1.0,1.8,335.2,0.00,12.6,12.8,"05:10:24",1
"22/03/15","05:30",0.0,13.5,94.9,1004.5,322.0,1.5,2.4,325.5,0.00,12.7,12.7,"05:28:16",1
"22/03/15","05:40",0.0,14.1,94.9,1004.3,327.4,1.7,2.6,315.2,0.00,13.3,12.7,"05:33:04",1
"22/03/15","05:50",0.0,14.7,94.9,1004.3,301.8,1.6,2.5,309.9,0.00,13.9,12.7,"05:45:04",1
"22/03/15","06:00",0.0,14.7,94.8,1004.8,299.6,1.3,2.0,323.3,0.00,13.9,12.7,"05:57:52",1
"22/03/15","06:10",0.0,14.6,94.9,1005.0,295.1,1.2,1.8,318.8,0.00,13.8,12.6,"06:00:48",1
"22/03/15","06:20",0.0,14.9,95.0,1004.8,290.7,1.2,2.4,340.7,0.00,14.1,12.5,"06:19:04",1
"22/03/15","06:30",0.0,14.7,94.6,1005.0,309.7,0.8,2.1,339.9,0.00,13.9,12.6,"06:27:36",1
"22/03/15","06:40",0.0,14.1,94.9,1005.2,285.2,1.0,1.7,252.8,0.00,13.3,12.7,"06:38:48",1
"22/03/15","06:50",0.0,13.9,95.2,1005.5,308.9,1.0,2.0,248.3,0.00,13.2,12.7,"06:45:52",1
"22/03/15","07:00",0.0,14.0,95.2,1005.7,258.5,0.7,1.9,250.9,0.00,13.3,12.7,"06:58:48",1
"22/03/15","07:10",0.0,14.2,95.2,1005.7,266.0,1.0,1.7,257.8,0.00,13.5,12.3,"07:09:04",1
"22/03/15","07:20",0.0,14.8,95.2,1005.7,202.8,1.2,2.2,248.2,0.00,14.1,12.3,"07:10:48",1
"22/03/15","07:30",0.0,14.5,95.1,1005.7,313.2,1.1,2.6,317.2,0.00,13.8,12.5,"07:20:08",1
"22/03/15","07:40",0.0,14.4,95.1,1006.0,317.2,1.6,2.0,328.5,0.01,13.7,12.6,"07:37:04",1
"22/03/15","07:50",0.0,14.4,95.2,1006.2,310.9,1.3,2.8,315.4,0.02,13.7,12.5,"07:45:28",1
"22/03/15","08:00",0.0,14.4,95.2,1006.2,295.5,0.7,1.7,264.9,0.02,13.7,12.3,"07:54:08",1
"22/03/15","08:10",0.0,14.6,95.2,1006.2,331.0,0.8,1.8,275.4,0.03,13.9,12.4,"08:08:00",1
"22/03/15","08:20",0.0,15.4,95.5,1006.4,294.1,0.8,1.7,331.9,0.11,14.7,12.6,"08:12:40",1
"22/03/15","08:30",0.0,16.4,95.1,1006.2,255.5,1.0,2.4,337.4,0.16,15.7,12.3,"08:21:04",1
"22/03/15","08:40",0.0,16.9,94.1,1006.4,153.6,1.1,2.1,158.1,0.18,16.0,12.5,"08:34:40",1
"22/03/15","08:50",0.0,16.9,93.8,1006.7,173.8,1.7,3.5,122.0,0.15,15.9,12.6,"08:49:12",1
"22/03/15","09:00",0.0,17.5,93.5,1007.4,143.5,1.3,3.1,119.4,0.26,16.5,12.5,"08:53:12",1
"22/03/15","09:10",0.0,15.7,90.7,1007.6,346.9,3.7,8.5,328.8,0.11,14.2,12.5,"09:08:08",1
"22/03/15","09:20",0.0,15.6,87.9,1007.8,350.0,4.4,7.5,330.9,0.10,13.6,12.4,"09:10:08",1
"22/03/15","09:30",0.0,15.3,84.4,1007.8,346.1,4.0,7.4,335.7,0.08,12.7,12.5,"09:25:12",1
"22/03/15","09:40",0.0,15.9,81.8,1007.4,346.3,3.7,7.1,337.7,0.19,12.8,12.6,"09:39:20",1
"22/03/15","09:50",0.0,16.5,77.4,1007.6,341.6,4.0,7.4,349.2,0.38,12.6,12.4,"09:45:28",1
"22/03/15","10:00",0.0,16.9,74.2,1008.3,347.0,4.1,8.2,345.8,0.42,12.3,12.7,"09:53:44",1
"22/03/15","10:10",0.0,17.1,71.5,1008.1,342.7,4.5,10.2,341.9,0.53,12.0,12.5,"10:01:12",1
"22/03/15","10:20",0.0,16.6,70.7,1008.3,343.6,5.2,11.9,342.0,0.42,11.3,12.7,"10:19:12",1
"22/03/15","10:30",0.0,16.2,70.4,1008.1,338.2,6.4,10.2,336.8,0.43,10.9,12.6,"10:23:36",1
"22/03/15","10:40",0.0,15.9,68.9,1008.6,343.7,5.6,9.8,351.9,0.40,10.2,12.9,"10:37:36",1
"22/03/15","10:50",0.0,16.3,68.6,1008.3,344.4,4.7,9.7,352.2,0.48,10.6,12.7,"10:41:36",1
"22/03/15","11:00",0.0,16.4,66.3,1008.1,345.4,5.4,12.0,336.8,0.55,10.1,12.9,"10:54:00",1
"22/03/15","11:10",0.0,16.5,66.1,1008.6,344.5,5.1,9.5,349.8,0.55,10.2,12.7,"11:00:48",1
"22/03/15","11:20",0.0,16.4,64.5,1008.6,342.3,5.0,8.8,336.6,0.55,9.7,12.8,"11:19:12",1
"22/03/15","11:30",0.0,16.2,63.5,1008.8,346.9,3.9,11.4,349.9,0.32,9.3,12.9,"11:27:52",1
"22/03/15","11:40",0.0,16.4,64.1,1008.6,321.0,5.2,9.3,336.9,0.36,9.6,12.8,"11:30:56",1
"22/03/15","11:50",0.0,16.6,61.9,1009.0,317.4,6.6,10.9,328.3,0.59,9.3,13.1,"11:43:12",1
"22/03/15","12:00",0.0,16.7,61.3,1008.3,324.4,7.0,12.1,329.7,0.58,9.3,13.1,"11:56:08",1
"22/03/15","12:10",0.0,16.9,62.2,1008.6,334.1,5.7,10.3,326.4,0.59,9.7,13.1,"12:08:08",1
"22/03/15","12:20",0.0,17.3,62.5,1008.6,341.2,4.7,9.6,340.3,0.58,10.1,13.1,"12:14:32",1
"22/03/15","12:30",0.0,16.7,61.9,1008.3,349.9,5.0,8.6,333.6,0.58,9.4,13.2,"12:20:48",1
"22/03/15","12:40",0.0,17.0,61.6,1008.6,358.0,4.4,10.0,350.6,0.59,9.6,13.3,"12:31:28",1
"22/03/15","12:50",0.0,17.1,61.1,1008.1,354.3,4.1,8.0,27.9,0.58,9.6,13.2,"12:44:24",1
"22/03/15","13:00",0.0,17.0,61.3,1007.8,343.0,4.6,8.3,326.0,0.58,9.5,13.3,"12:52:40",1
"22/03/15","13:10",0.0,17.2,61.3,1008.1,346.7,4.7,9.5,352.5,0.57,9.7,13.3,"13:05:44",1
"22/03/15","13:20",0.0,17.1,60.5,1008.1,343.6,4.9,9.8,332.3,0.57,9.4,13.5,"13:15:36",1
"22/03/15","13:30",0.0,17.1,60.0,1007.8,347.5,5.1,11.6,341.0,0.56,9.3,13.5,"13:26:40",1
"22/03/15","13:40",0.0,17.4,58.6,1008.1,347.5,4.4,8.3,333.9,0.55,9.3,13.5,"13:34:56",1
"22/03/15","13:50",0.0,17.5,57.1,1007.6,342.4,4.4,7.8,333.4,0.55,9.0,13.7,"13:44:40",1
"22/03/15","14:00",0.0,17.9,56.1,1007.6,341.7,4.6,10.8,349.3,0.55,9.1,13.5,"13:50:56",1
"22/03/15","14:10",0.0,18.3,54.3,1007.6,348.2,3.7,8.9,345.5,0.55,9.0,13.7,"14:00:08",1
"22/03/15","14:20",0.0,17.8,52.0,1007.6,355.0,3.6,7.7,346.3,0.52,7.9,13.7,"14:18:32",1
"22/03/15","14:30",0.0,17.9,50.5,1007.8,11.7,3.1,6.8,32.5,0.49,7.5,13.7,"14:27:04",1
"22/03/15","14:40",0.0,18.0,51.2,1008.1,0.4,3.5,8.7,342.0,0.47,7.8,14.0,"14:37:20",1
"22/03/15","14:50",0.0,18.4,49.6,1008.1,341.3,3.4,7.4,320.4,0.45,7.7,14.0,"14:41:20",1
"22/03/15","15:00",0.0,18.3,48.4,1007.8,334.9,3.2,5.9,347.3,0.44,7.3,14.1,"14:59:44",1
"22/03/15","15:10",0.0,18.2,47.0,1008.1,343.7,3.4,9.6,319.9,0.42,6.8,14.1,"15:08:40",1
"22/03/15","15:20",0.0,18.5,44.2,1008.1,343.4,2.8,5.7,342.8,0.40,6.1,14.1,"15:10:02",1
"22/03/15","15:30",0.0,17.9,43.4,1008.1,312.2,4.6,7.8,350.2,0.37,5.3,14.2,"15:22:32",1
"22/03/15","15:40",0.0,17.8,41.9,1008.1,329.0,4.4,7.4,328.2,0.34,4.7,14.4,"15:32:32",1
"22/03/15","15:50",0.0,18.0,42.5,1008.3,313.3,3.2,6.5,342.4,0.32,5.1,14.1,"15:41:12",1
"22/03/15","16:00",0.0,17.7,43.1,1008.3,301.1,3.7,6.3,330.6,0.29,5.0,14.4,"15:56:00",1
"22/03/15","16:10",0.0,17.8,45.0,1008.8,330.5,3.1,5.9,304.2,0.27,5.8,14.4,"16:02:00",1
"22/03/15","16:20",0.0,17.5,47.3,1008.3,349.6,3.2,5.4,327.5,0.24,6.2,14.4,"16:18:00",1
"22/03/15","16:30",0.0,17.3,47.3,1008.1,343.3,3.4,5.6,340.3,0.21,6.0,14.3,"16:22:16",1
"22/03/15","16:40",0.0,16.8,48.4,1008.6,339.3,4.1,8.1,343.2,0.18,5.9,14.2,"16:33:28",1
"22/03/15","16:50",0.0,16.9,48.9,1008.1,342.5,3.2,5.9,340.3,0.15,6.1,14.2,"16:41:36",1
"22/03/15","17:00",0.0,16.7,49.2,1008.8,338.9,3.1,6.2,337.7,0.12,6.0,14.2,"16:56:16",1
"22/03/15","17:10",0.0,16.6,48.8,1008.6,349.0,2.6,6.2,342.9,0.10,5.8,14.3,"17:03:52",1
"22/03/15","17:20",0.0,16.0,49.4,1008.6,345.2,3.4,7.5,19.7,0.07,5.5,14.4,"17:15:12",1
"22/03/15","17:30",0.0,15.9,51.3,1008.8,350.6,3.1,6.0,341.2,0.05,5.9,14.5,"17:22:16",1
"22/03/15","17:40",0.0,15.5,52.0,1009.0,355.9,2.7,6.2,348.5,0.03,5.7,14.3,"17:32:24",1
"22/03/15","17:50",0.0,14.9,54.2,1008.8,347.4,3.4,6.0,337.9,0.02,5.8,14.3,"17:48:48",1
"22/03/15","18:00",0.0,14.3,56.3,1009.3,342.0,3.7,7.5,334.3,0.00,5.8,14.4,"17:58:24",1
"22/03/15","18:10",0.0,13.7,59.1,1009.0,341.6,3.9,8.0,333.6,0.00,5.9,14.3,"18:09:24",1
"22/03/15","18:20",0.0,13.3,61.1,1009.0,337.9,3.4,7.0,345.2,0.00,6.0,14.2,"18:17:52",1
"22/03/15","18:30",0.0,12.9,62.8,1009.0,339.5,3.5,6.4,336.7,0.00,6.0,14.2,"18:25:10",1
"22/03/15","18:40",0.0,12.6,64.0,1009.0,339.0,3.9,6.0,346.4,0.00,6.0,14.0,"18:38:42",1
"22/03/15","18:50",0.0,12.3,64.9,1009.0,338.6,4.1,7.1,322.2,0.00,5.9,14.0,"18:48:52",1
"22/03/15","19:00",0.0,12.0,65.7,1009.7,339.9,2.7,6.4,344.1,0.00,5.8,14.1,"18:50:26",1
"22/03/15","19:10",0.0,11.8,66.3,1009.5,348.4,2.2,4.0,341.9,0.00,5.8,13.9,"19:02:28",1
"22/03/15","19:20",0.0,11.6,67.2,1009.7,351.3,2.3,4.2,332.7,0.00,5.8,13.8,"19:19:22",1
"22/03/15","19:30",0.0,11.3,68.1,1009.7,352.7,1.3,2.8,323.0,0.00,5.7,13.9,"19:24:12",1
"22/03/15","19:40",0.0,11.2,68.9,1009.7,2.8,1.6,4.7,0.3,0.00,5.7,13.8,"19:38:08",1
"22/03/15","19:50",0.0,10.8,69.6,1010.0,343.2,2.1,4.2,335.5,0.00,5.5,14.0,"19:43:06",1
"22/03/15","20:00",0.0,10.6,70.4,1010.0,335.3,1.7,3.7,337.0,0.00,5.5,13.4,"19:51:12",1
"22/03/15","20:10",0.0,10.5,70.9,1010.0,350.7,2.0,4.1,342.9,0.00,5.5,13.8,"20:02:08",1
"22/03/15","20:20",0.0,10.3,71.5,1009.7,317.7,2.3,4.3,329.8,0.00,5.4,13.7,"20:16:16",1
"22/03/15","20:30",0.0,10.0,71.8,1010.2,276.7,1.2,3.6,314.9,0.00,5.2,13.6,"20:24:40",1
"22/03/15","20:40",0.0,9.7,72.8,1009.7,287.3,1.2,2.6,264.2,0.00,5.1,13.7,"20:36:48",1
"22/03/15","20:50",0.0,9.6,73.5,1010.0,280.1,1.8,2.6,253.3,0.00,5.1,13.4,"20:41:44",1
"22/03/15","21:00",0.0,9.4,74.3,1010.0,284.9,2.0,2.7,297.0,0.00,5.1,13.4,"20:58:40",1
"22/03/15","21:10",0.0,9.2,75.0,1010.0,284.3,1.8,2.2,287.1,0.00,5.0,13.3,"21:09:12",1
"22/03/15","21:20",0.0,8.8,76.1,1010.2,287.3,2.1,2.8,267.3,0.00,4.9,13.2,"21:19:28",1
"22/03/15","21:30",0.0,8.7,77.2,1010.2,285.7,2.0,2.8,299.8,0.00,5.0,13.1,"21:28:16",1
"22/03/15","21:40",0.0,8.4,78.5,1010.4,275.3,2.1,2.7,272.8,0.00,4.9,13.3,"21:34:48",1
"22/03/15","21:50",0.0,8.2,79.9,1010.4,314.7,2.3,3.1,323.9,0.00,5.0,13.3,"21:46:32",1
"22/03/15","22:00",0.0,7.7,80.9,1010.4,321.3,2.1,2.5,337.0,0.00,4.7,13.1,"21:52:16",1
"22/03/15","22:10",0.0,7.5,82.0,1010.9,293.6,1.7,2.0,316.4,0.00,4.7,13.0,"22:04:16",1
"22/03/15","22:20",0.0,7.4,83.0,1010.7,304.4,1.8,2.1,311.4,0.00,4.7,13.0,"22:13:20",1
"22/03/15","22:30",0.0,7.0,83.7,1010.7,300.8,1.5,1.9,316.3,0.00,4.5,13.0,"22:21:04",1
"22/03/15","22:40",0.0,7.0,84.5,1010.9,310.4,1.8,2.1,323.2,0.00,4.6,12.8,"22:35:52",1
"22/03/15","22:50",0.0,6.9,85.3,1010.7,304.3,1.8,2.4,305.8,0.00,4.6,12.8,"22:48:56",1
"22/03/15","23:00",0.0,7.1,85.9,1010.7,292.1,2.3,2.7,295.9,0.00,4.9,12.7,"22:50:56",1
"22/03/15","23:10",0.0,7.0,86.4,1010.9,284.7,2.1,2.4,300.4,0.00,4.9,12.6,"23:02:16",1
"22/03/15","23:20",0.0,6.9,87.0,1010.9,275.4,1.7,2.2,291.0,0.00,4.9,12.7,"23:10:08",1
"22/03/15","23:30",0.0,6.7,87.4,1011.2,295.6,1.6,2.1,312.5,0.00,4.8,12.4,"23:29:20",1
"22/03/15","23:40",0.0,6.7,88.0,1011.4,304.5,2.1,3.5,322.8,0.00,4.9,12.5,"23:39:04",1
"22/03/15","23:50",0.0,6.8,88.2,1010.9,325.3,2.2,3.3,324.3,0.00,5.0,12.3,"23:42:00",1
"22/03/15","24:00",0.0,6.9,88.5,1010.7,328.3,2.5,3.5,336.8,0.00,5.2,12.2,"23:59:36",1
